Voltar ao catálogo

SL-6 R/B(2)

AtivoHEO
NORAD 15741·ROCKET BODY·🇷🇺 Russia

Lançado May 29, 1985 de Plesetsk Cosmodrome

Loading…

Próximas Passagens (próximas 24 horas)

TLE

AtualizadoSource: Space-Track

Época: Sep 14, 2026, 01:43 UTC

1 15741U 85040D   26257.07209319  .00000782  00000-0  50908-3 0  9990
2 15741  62.0004 274.3424 7406827 259.5555  17.3247  1.96954684296753

Acompanhe SL-6 R/B(2) em tempo real com AllMySat

Download on the App Store